TimeMST,TemperatureF,Dew PointF,Humidity,Sea Level PressureIn,VisibilityMPH,Wind Direction,Wind SpeedMPH,Gust SpeedMPH,PrecipitationIn,Events,Conditions,WindDirDegrees,DateUTC
12:15 AM,26.6,10.4,51,30.12,10.0,NW,6.9,-,N/A,,Clear,320,2013-02-14 07:15:00
12:35 AM,24.8,10.4,54,30.13,10.0,North,5.8,-,N/A,,Clear,350,2013-02-14 07:35:00
12:55 AM,24.8,10.4,54,30.12,10.0,NNW,8.1,-,N/A,,Clear,340,2013-02-14 07:55:00
1:15 AM,26.6,10.4,51,30.12,10.0,NNW,6.9,-,N/A,,Clear,340,2013-02-14 08:15:00
1:35 AM,24.8,10.4,54,30.12,10.0,NNW,4.6,-,N/A,,Clear,340,2013-02-14 08:35:00
1:55 AM,24.8,10.4,54,30.11,10.0,North,9.2,-,N/A,,Clear,350,2013-02-14 08:55:00
2:15 AM,21.2,8.6,58,30.11,10.0,Calm,Calm,-,N/A,,Clear,0,2013-02-14 09:15:00
2:35 AM,23.0,8.6,54,30.11,10.0,North,5.8,-,N/A,,Clear,360,2013-02-14 09:35:00
2:55 AM,21.2,6.8,54,30.11,10.0,Calm,Calm,-,N/A,,Clear,0,2013-02-14 09:55:00
3:15 AM,19.4,8.6,63,30.11,10.0,Calm,Calm,-,N/A,,Clear,0,2013-02-14 10:15:00
3:35 AM,15.8,6.8,68,30.10,10.0,NNW,4.6,-,N/A,,Clear,340,2013-02-14 10:35:00
3:55 AM,15.8,6.8,68,30.10,10.0,NNW,3.5,-,N/A,,Clear,340,2013-02-14 10:55:00
4:15 AM,19.4,10.4,68,30.10,10.0,NW,6.9,-,N/A,,Clear,320,2013-02-14 11:15:00
4:35 AM,15.8,5.0,62,30.10,10.0,Calm,Calm,-,N/A,,Clear,0,2013-02-14 11:35:00
5:50 AM,15.8,6.8,68,30.11,10.0,WNW,10.4,-,N/A,,Clear,300,2013-02-14 12:50:00
6:50 AM,15.8,6.8,68,30.13,10.0,Calm,Calm,-,N/A,,Clear,0,2013-02-14 13:50:00
7:50 AM,23.0,12.2,63,30.14,10.0,NNW,6.9,-,N/A,,Clear,330,2013-02-14 14:50:00
8:50 AM,32.0,14.0,48,30.16,10.0,Calm,Calm,-,N/A,,Clear,0,2013-02-14 15:50:00
9:50 AM,35.6,15.8,44,30.15,10.0,NNW,8.1,-,N/A,,Clear,330,2013-02-14 16:50:00
10:50 AM,37.4,15.8,41,30.15,10.0,NW,6.9,-,N/A,,Clear,310,2013-02-14 17:50:00
11:50 AM,41.0,14.0,33,30.12,10.0,NW,13.8,19.6,N/A,,Clear,310,2013-02-14 18:50:00
12:50 PM,44.6,14.0,29,30.09,10.0,NW,16.1,23.0,N/A,,Clear,310,2013-02-14 19:50:00
1:50 PM,46.4,10.4,23,30.08,10.0,NW,13.8,23.0,N/A,,Clear,320,2013-02-14 20:50:00
2:50 PM,46.4,12.2,25,30.08,10.0,NW,26.5,-,N/A,,Clear,320,2013-02-14 21:50:00
3:50 PM,46.4,12.2,25,30.09,10.0,NW,28.8,-,N/A,,Clear,310,2013-02-14 22:50:00
4:50 PM,44.6,10.4,25,30.08,10.0,WNW,26.5,-,N/A,,Clear,300,2013-02-14 23:50:00
5:50 PM,41.0,12.2,31,30.11,10.0,NW,20.7,-,N/A,,Clear,320,2013-02-15 00:50:00
6:50 PM,37.4,12.2,36,30.12,10.0,NW,17.3,-,N/A,,Clear,310,2013-02-15 01:50:00
9:15 PM,33.8,14.0,44,30.18,10.0,NNW,16.1,-,N/A,,Clear,330,2013-02-15 04:15:00
9:35 PM,33.8,14.0,44,30.19,10.0,NNW,17.3,-,N/A,,Clear,330,2013-02-15 04:35:00
9:55 PM,33.8,14.0,44,30.19,10.0,NW,15.0,-,N/A,,Clear,320,2013-02-15 04:55:00
10:15 PM,32.0,14.0,48,30.20,10.0,NNW,16.1,-,N/A,,Clear,330,2013-02-15 05:15:00
10:35 PM,32.0,14.0,48,30.20,10.0,NNW,16.1,-,N/A,,Clear,330,2013-02-15 05:35:00
10:55 PM,32.0,14.0,48,30.21,10.0,NNW,15.0,-,N/A,,Clear,330,2013-02-15 05:55:00
11:15 PM,32.0,14.0,48,30.21,10.0,North,12.7,-,N/A,,Clear,350,2013-02-15 06:15:00
11:35 PM,32.0,14.0,48,30.22,10.0,NE,9.2,-,N/A,,Clear,50,2013-02-15 06:35:00
11:55 PM,30.2,14.0,51,30.23,10.0,East,5.8,-,N/A,,Clear,80,2013-02-15 06:55:00